[[{"header":{"parameterUnit":"m.s-1","parameterCategory":2,"la1":30.2991,"la2":30.254,"lo1":-89.0895,"lo2":-89.0444,"dy":0.0017,"dx":0.0017,"nx":28,"ny":28,"refTime":"2024-07-04T03:00:00:Z","depth":"0","parameterNumber":2,"parameterNumberName":"U-component_of_CURRENTS"},"data":[0,0,0,0,0,0,0,0,0,0,0,0,0,0,0,0,0,0,0,0,0,0,0,0,0,0,0,0,0,0,0,0,0,0,0,0,0,0,0,0,0,0,0,0,0,0,0,0,0,0,0,0,0,0,0,0,0,0,0.3836,0.3836,0,0.3863,0.3864,0.3864,0.3815,0.3814,0.3812,0.3811,0.3876,0.3879,0.3882,0,0,0,0,0,0,0,0,0,0,0,0,0,0.3876,0.3875,0.3836,0.3836,0.3837,0.3863,0.3864,0.3864,0.3815,0.3814,0.3812,0.381,0.3875,0.3878,0.3882,0,0,0,0,0,0,0,0,0,0,0,0,0,0.3875,0.3874,0.3836,0.3817,0.3816,0.3863,0.3864,0.3864,0.3816,0.3814,0.3811,0.3809,0.3873,0.3878,0.3882,0.3955,0,0,0.3897,0.3899,0,0,0,0,0,0,0,0,0.3875,0.3873,0.3819,0.3819,0.3817,0.3835,0.3902,0.3897,0.3816,0.3814,0.3811,0.3808,0.3869,0.3873,0.388,0.3958,0.3961,0.3897,0.39,0.3902,0.3903,0,0,0,0,0,0,0,0.3875,0.3872,0.3845,0.382,0.3819,0.3854,0.385,0.3901,0.3852,0.3814,0.3811,0.3818,0.3868,0.3876,0.3882,0.3962,0.3897,0.3901,0.3904,0.3906,0.4136,0.414,0,0,0,0,0,0,0.387,0.3872,0.3844,0.3846,0.3843,0.3855,0.385,0.383,0.3851,0.3852,0.382,0.3816,0.3869,0.3876,0.3884,0.4009,0.3902,0.3906,0.3909,0.4133,0.4137,0.4141,0,0,0,0,0,0,0.3871,0.3866,0.3843,0.3863,0.3862,0.3856,0.3834,0.3832,0.3845,0.3855,0.3856,0.3835,0.3868,0.3877,0.395,0.401,0.3908,0.3912,0.4129,0.4134,0.4139,0.4237,0,0,0,0,0,0,0.3871,0.3866,0.3866,0.3861,0.3861,0.39,0.3837,0.3834,0.3853,0.3848,0.387,0.3873,0.3867,0.3943,0.3955,0.4014,0.3916,0.4125,0.4131,0.4137,0.4229,0.4244,0.4257,0,0,0,0,0,0.3872,0.3892,0.3865,0.3864,0.3855,0.3903,0.3908,0.3894,0.3856,0.3891,0.3897,0.3872,0.399,0.395,0.3963,0.4025,0.4122,0.413,0.4137,0.4223,0.4241,0.4257,0,0,0,0,0,0,0.3926,0.3889,0.386,0.3868,0.3893,0.3896,0.3933,0.3911,0.3941,0.3935,0.3921,0.3928,0.4023,0.4015,0.397,0.4111,0.4052,0.4062,0.4113,0.413,0.4144,0.4191,0.392,0,0,0,0,0,0.3933,0.3928,0.3916,0.3933,0.3945,0.3938,0.3957,0.3947,0.3966,0.3974,0.3988,0.4012,0.4067,0.4086,0.414,0.4214,0.4252,0.4262,0.4276,0.4287,0.4336,0.4448,0.4477,0.4166,0.4166,0.4165,0,0,0.3962,0.3943,0.3941,0.3945,0.3958,0.3998,0.3945,0.399,0.4028,0.3984,0.4055,0.408,0.4105,0.4194,0.4233,0.4187,0.4394,0.4297,0.4307,0.435,0.4459,0.4489,0.4516,0.4171,0.417,0.4169,0,0,0.4025,0.4001,0.4016,0.4041,0.4065,0.4069,0.4084,0.4099,0.4113,0.4183,0.4168,0.4238,0.4292,0.4336,0.4358,0.4489,0.4482,0.4485,0.4578,0.4684,0.4711,0.4735,0.4809,0.4839,0.4471,0.4471,0.4471,0,0.4059,0.4059,0.4044,0.408,0.4107,0.4101,0.4146,0.4181,0.422,0.4262,0.4223,0.4364,0.4374,0.45,0.4532,0.4527,0.4567,0.4502,0.4704,0.4728,0.4751,0.4822,0.4854,0.4476,0.4476,0.4475,0.4475,0,0.4124,0.414,0.4172,0.4189,0.4232,0.4283,0.4312,0.4367,0.4373,0.4404,0.4537,0.4567,0.4648,0.4655,0.4629,0.4797,0.4766,0.4722,0.4657,0.4789,0.4854,0.4885,0.4484,0.4482,0.4481,0.4479,0,0,0.4127,0.4194,0.4198,0.4227,0.4285,0.4323,0.442,0.4503,0.4578,0.4639,0.4756,0.4845,0.4865,0.4896,0.4885,0.4962,0.5136,0.4906,0.4909,0.4976,0.5361,0.5133,0.5144,0.5117,0.5123,0.5128,0.5335,0,0.4171,0.4245,0.4269,0.436,0.4401,0.4447,0.4539,0.4626,0.4698,0.4823,0.4896,0.5009,0.4953,0.4995,0.5079,0.5142,0.5227,0.5085,0.5229,0.5235,0.5013,0.5177,0.4862,0.5002,0.5365,0.537,0.5374,0,0.4189,0.424,0.4322,0.4427,0.4452,0.4513,0.4651,0.474,0.492,0.4985,0.5123,0.5181,0.5346,0.5255,0.5464,0.5371,0.5394,0.5419,0.5426,0.5211,0.5066,0.4934,0.5045,0.4955,0.5422,0.5418,0.5415,0,0.4161,0.4265,0.4326,0.4361,0.449,0.4547,0.4626,0.4788,0.4897,0.5105,0.5215,0.5395,0.5503,0.5599,0.5631,0.5575,0.583,0.5753,0.5581,0.5564,0.5328,0.5277,0.5367,0.5921,0.592,0.592,0.5919,0,0.4167,0.4215,0.4315,0.4354,0.4461,0.4544,0.4691,0.4803,0.5,0.5145,0.5298,0.5435,0.5597,0.5729,0.574,0.5757,0.5924,0.5659,0.5627,0.5346,0.5297,0.5226,0.5185,0.5927,0.5926,0.5924,0.5923,0,0.4124,0.4185,0.4271,0.4402,0.4449,0.4527,0.472,0.4831,0.5015,0.5217,0.5294,0.5541,0.5684,0.5793,0.5952,0.5873,0.574,0.5863,0.5499,0.5417,0.5102,0.5075,0.4983,0.4849,0.5741,0.5737,0.5734,0,0.4108,0.4144,0.4291,0.4355,0.4415,0.4544,0.4637,0.4822,0.4938,0.524,0.5327,0.5553,0.5624,0.5783,0.57,0.57,0.5606,0.5414,0.5242,0.5092,0.5044,0.4891,0.4777,0.4987,0.4977,0.497,0.4964,0,0.4101,0.415,0.4239,0.4364,0.4454,0.4555,0.4689,0.4772,0.4976,0.5109,0.5271,0.5353,0.5461,0.5304,0.5289,0.5247,0.5124,0.525,0.5226,0.4582,0.43,0.4148,0.4842,0.4896,0.4903,0.4908,0.4911,0.4914,0.4108,0.4159,0.4277,0.4371,0.4473,0.452,0.451,0.4631,0.4731,0.479,0.5028,0.4977,0.4971,0.4869,0.481,0.4547,0.4617,0.4392,0.4418,0.4315,0.4032,0.4546,0.4455,0.4459,0.4463,0.4466,0.4469,0,0.4102,0.4163,0.4272,0.4358,0.4375,0.4442,0.4497,0.4406,0.4361,0.4441,0.4466,0.4381,0.4188,0.4172,0.3972,0.3786,0.3628,0.3703,0.3481,0.3447,0.4032,0.3841,0.3449,0.3449,0.3449,0.345,0.345,0.345,0.4116,0.418,0.4205,0.421,0.4227,0.4105,0.404,0.3934,0.3908,0.3727,0.3606,0.3642,0.3787,0.3667,0.3444,0.3344,0.3183,0.2915,0.3061,0.3532,0.36,0.3665,0.348,0.3019,0.3019,0.2276,0.227,0.2266]},{"header":{"parameterUnit":"m.s-1","parameterCategory":2,"la1":30.2991,"la2":30.254,"lo1":-89.0895,"lo2":-89.0444,"dy":0.0017,"dx":0.0017,"nx":28,"ny":28,"refTime":"2024-07-04T03:00:00:Z","depth":"0","parameterNumber":3,"parameterNumberName":"V-component_of_CURRENTS"},"data":[0,0,0,0,0,0,0,0,0,0,0,0,0,0,0,0,0,0,0,0,0,0,0,0,0,0,0,0,0,0,0,0,0,0,0,0,0,0,0,0,0,0,0,0,0,0,0,0,0,0,0,0,0,0,0,0,0,0,0.0297,0.0297,0,0.0275,0.0275,0.0274,0.0248,0.0248,0.0247,0.0247,0.021,0.0209,0.0209,0,0,0,0,0,0,0,0,0,0,0,0,0,0.0288,0.0288,0.0297,0.0297,0.0296,0.0275,0.0275,0.0274,0.0248,0.0248,0.0247,0.0247,0.021,0.0209,0.0209,0,0,0,0,0,0,0,0,0,0,0,0,0,0.0281,0.0288,0.0297,0.0281,0.0279,0.0275,0.0275,0.0274,0.0248,0.0248,0.0247,0.0247,0.021,0.0209,0.0209,0.0215,0,0,0.0206,0.0205,0,0,0,0,0,0,0,0,0.0282,0.0282,0.0283,0.0282,0.028,0.0264,0.0258,0.0254,0.0249,0.026,0.0247,0.0246,0.0227,0.0225,0.0222,0.0214,0.0212,0.0206,0.0205,0.0205,0.0205,0,0,0,0,0,0,0,0.0282,0.0282,0.0288,0.0283,0.0281,0.0265,0.0263,0.0257,0.0247,0.0259,0.0257,0.0255,0.0226,0.0223,0.0221,0.0211,0.0206,0.0205,0.0204,0.0204,0.0224,0.0225,0,0,0,0,0,0,0.0287,0.0283,0.0289,0.0288,0.0279,0.0265,0.0264,0.027,0.0247,0.0243,0.0255,0.0254,0.0225,0.0222,0.022,0.0258,0.0205,0.0204,0.0203,0.0223,0.0224,0.0225,0,0,0,0,0,0,0.0287,0.0288,0.029,0.0284,0.0283,0.0266,0.0273,0.0269,0.0268,0.0245,0.024,0.0258,0.0224,0.0221,0.0229,0.0255,0.0204,0.0203,0.0221,0.0223,0.0225,0.0315,0,0,0,0,0,0,0.0287,0.0289,0.0296,0.0285,0.0284,0.0302,0.0273,0.0269,0.0268,0.0265,0.0245,0.0241,0.0224,0.023,0.0228,0.0253,0.0202,0.022,0.0222,0.0224,0.031,0.0319,0.0327,0,0,0,0,0,0.0287,0.0305,0.0297,0.0297,0.0294,0.0303,0.0301,0.0286,0.0268,0.028,0.0267,0.0242,0.0241,0.0231,0.0227,0.0253,0.0219,0.0222,0.0224,0.0307,0.0317,0.0326,0,0,0,0,0,0,0.0306,0.0304,0.0294,0.031,0.0311,0.0299,0.0308,0.0292,0.029,0.0289,0.0258,0.0254,0.027,0.0248,0.0238,0.0263,0.0225,0.0226,0.0289,0.0298,0.0306,0.0344,0.0201,0,0,0,0,0,0.0314,0.0328,0.032,0.0335,0.0337,0.0322,0.0322,0.0315,0.0309,0.0307,0.0293,0.028,0.0277,0.0278,0.027,0.0287,0.0276,0.0299,0.0308,0.0315,0.0343,0.0356,0.0369,0.0233,0.0233,0.0233,0,0,0.0325,0.0326,0.0333,0.034,0.0338,0.0364,0.0321,0.0334,0.0358,0.0304,0.0334,0.0309,0.0287,0.0308,0.0313,0.0295,0.0342,0.0318,0.0324,0.0349,0.036,0.0373,0.0385,0.0235,0.0234,0.0234,0,0,0.0365,0.0358,0.0386,0.0395,0.0401,0.0396,0.0402,0.0398,0.0399,0.042,0.0387,0.0386,0.0378,0.0376,0.037,0.0419,0.0384,0.0406,0.0482,0.0494,0.0506,0.0516,0.05,0.0509,0.0412,0.0412,0.0412,0,0.0379,0.0416,0.0397,0.0431,0.045,0.0416,0.046,0.0459,0.0459,0.0477,0.0444,0.0454,0.0418,0.0459,0.0466,0.0441,0.0432,0.0447,0.0507,0.0517,0.0526,0.0507,0.0515,0.0417,0.0416,0.0416,0.0415,0,0.0447,0.0476,0.0496,0.0532,0.0547,0.0579,0.0578,0.0594,0.0584,0.0586,0.0619,0.058,0.0593,0.0568,0.0529,0.0578,0.0544,0.0515,0.0487,0.0546,0.0521,0.0528,0.0423,0.0422,0.042,0.0419,0,0,0.0485,0.0534,0.0545,0.0585,0.0606,0.0634,0.0674,0.0713,0.0766,0.0745,0.0818,0.0777,0.0757,0.075,0.0701,0.0696,0.0721,0.0636,0.0634,0.0629,0.0735,0.066,0.0659,0.0705,0.0707,0.0709,0.0685,0,0.0549,0.0639,0.0643,0.0733,0.0782,0.0775,0.0828,0.0856,0.087,0.0931,0.0893,0.0937,0.0827,0.0846,0.0823,0.077,0.0747,0.073,0.0672,0.067,0.0604,0.0668,0.064,0.0613,0.0691,0.0692,0.0693,0,0.062,0.0674,0.0771,0.0857,0.0879,0.0926,0.1016,0.1062,0.1117,0.1134,0.1157,0.1133,0.1139,0.1033,0.097,0.0967,0.0858,0.079,0.0787,0.0699,0.061,0.0569,0.0622,0.0494,0.0703,0.0702,0.0701,0,0.0678,0.0768,0.0853,0.0881,0.0964,0.1014,0.1065,0.1129,0.1211,0.1279,0.136,0.1331,0.1369,0.1244,0.1083,0.1041,0.1004,0.0928,0.0751,0.0742,0.07,0.0685,0.0635,0.0871,0.0871,0.0871,0.0871,0,0.0752,0.0824,0.0891,0.0944,0.1068,0.1095,0.1241,0.128,0.1392,0.1538,0.1481,0.1597,0.1429,0.1379,0.1177,0.1003,0.1076,0.0789,0.0748,0.0725,0.0714,0.0584,0.0469,0.087,0.087,0.087,0.0871,0,0.081,0.0848,0.0959,0.106,0.1101,0.1196,0.1362,0.1481,0.1559,0.1755,0.1798,0.1832,0.1768,0.1556,0.1378,0.1157,0.0861,0.087,0.0838,0.0793,0.0482,0.0371,0.0238,0.0169,0.0684,0.0682,0.0681,0,0.085,0.091,0.1046,0.1135,0.1188,0.1331,0.1452,0.1556,0.1702,0.1915,0.2035,0.2038,0.2064,0.1759,0.1368,0.1011,0.083,0.0737,0.0635,0.0487,0.0335,0.026,0.0207,0.0605,0.0603,0.0602,0.06,0,0.0935,0.0977,0.1078,0.1249,0.1383,0.1549,0.1727,0.1863,0.203,0.2198,0.2404,0.244,0.2152,0.1803,0.1297,0.1031,0.0618,0.0689,0.0569,0.0304,0.019,0.0097,0.0576,0.0586,0.0587,0.0588,0.0589,0.059,0.1005,0.1092,0.1222,0.1386,0.1545,0.1752,0.1908,0.2116,0.2355,0.2601,0.2636,0.2683,0.2182,0.1494,0.1149,0.0508,0.049,0.0298,0.0186,0.0134,0.004,0.047,0.0408,0.0408,0.0408,0.0409,0.0409,0,0.1093,0.1198,0.1357,0.1562,0.1747,0.1811,0.2087,0.226,0.2545,0.2711,0.2855,0.2592,0.1978,0.1366,0.0492,0.0087,-0.0039,-0.0116,-0.0202,-0.0226,0.02,0.0173,0.0019,0.0019,0.002,0.002,0.002,0.002,0.1151,0.1305,0.1381,0.1684,0.1842,0.2088,0.2245,0.2496,0.2653,0.2835,0.2809,0.2766,0.2292,0.0825,-0.0116,-0.0321,-0.0518,-0.0629,-0.0709,-0.0403,-0.0371,-0.034,-0.0386,-0.0654,-0.0656,-0.106,-0.1065,-0.1068]}],[{"header":{"parameterUnit":"m.s-1","parameterCategory":2,"la1":30.2991,"la2":30.254,"lo1":-89.0895,"lo2":-89.0444,"dy":0.0017,"dx":0.0017,"nx":28,"ny":28,"refTime":"2024-07-04T03:00:00:Z","depth":"2","parameterNumber":2,"parameterNumberName":"U-component_of_CURRENTS"},"data":[0,0,0,0,0,0,0,0,0,0,0,0,0,0,0,0,0,0,0,0,0,0,0,0,0,0,0,0,0,0,0,0,0,0,0,0,0,0,0,0,0,0,0,0,0,0,0,0,0,0,0,0,0,0,0,0,0,0,0.3347,0.3347,0,0.3372,0.3372,0.3372,0.3345,0.3344,0.3343,0.3342,0.3367,0.3369,0.337,0,0,0,0,0,0,0,0,0,0,0,0,0,0.3338,0.3338,0.3347,0.3347,0.3347,0.3372,0.3372,0.3373,0.3346,0.3344,0.3343,0.3342,0.3367,0.3369,0.3371,0,0,0,0,0,0,0,0,0,0,0,0,0,0.3351,0.3338,0.3347,0.3336,0.3336,0.3372,0.3372,0.3373,0.3346,0.3344,0.3343,0.3341,0.3366,0.3368,0.3371,0.3419,0,0,0.3379,0.338,0,0,0,0,0,0,0,0,0.335,0.3351,0.3338,0.3337,0.3336,0.3353,0.3378,0.3388,0.3346,0.3343,0.3342,0.334,0.3363,0.3366,0.3375,0.342,0.3421,0.3379,0.338,0.3381,0.3382,0,0,0,0,0,0,0,0.3349,0.335,0.3357,0.3338,0.3337,0.3352,0.3351,0.338,0.3362,0.3343,0.3341,0.3343,0.3363,0.3373,0.3376,0.3422,0.3379,0.3381,0.3382,0.3383,0.353,0.3533,0,0,0,0,0,0,0.3343,0.3349,0.3357,0.3358,0.3339,0.3353,0.3352,0.335,0.3362,0.3362,0.3344,0.3342,0.3369,0.3373,0.3376,0.3469,0.3381,0.3384,0.3385,0.3528,0.3531,0.3534,0,0,0,0,0,0,0.3343,0.3344,0.3356,0.3354,0.3356,0.3354,0.3352,0.3351,0.3374,0.3363,0.3363,0.3369,0.3368,0.3373,0.3404,0.3468,0.3385,0.3387,0.3525,0.3529,0.3532,0.3632,0,0,0,0,0,0,0.3343,0.3343,0.3354,0.3353,0.3356,0.3392,0.3354,0.3353,0.3377,0.3374,0.3384,0.3384,0.3367,0.3401,0.3407,0.347,0.3389,0.3522,0.3527,0.3531,0.3626,0.3639,0.365,0,0,0,0,0,0.3342,0.3356,0.3355,0.3356,0.3366,0.3394,0.3398,0.3391,0.338,0.3403,0.3397,0.3384,0.3434,0.3404,0.3411,0.3477,0.352,0.3526,0.3531,0.3621,0.3636,0.365,0,0,0,0,0,0,0.3361,0.3355,0.3353,0.3365,0.3387,0.3389,0.3415,0.3411,0.3428,0.3428,0.3409,0.3409,0.3475,0.3457,0.3425,0.3532,0.3479,0.3486,0.3545,0.356,0.3572,0.3596,0.3391,0,0,0,0,0,0.3372,0.3375,0.3384,0.3398,0.3417,0.3425,0.344,0.3438,0.3446,0.3452,0.3453,0.3465,0.3505,0.3512,0.3542,0.359,0.361,0.3638,0.365,0.366,0.3685,0.3799,0.3824,0.3551,0.3551,0.3551,0,0,0.3374,0.338,0.3377,0.3403,0.3423,0.3455,0.3431,0.3466,0.3492,0.3455,0.3497,0.3519,0.3531,0.3591,0.3617,0.3578,0.3738,0.3667,0.3676,0.3696,0.3807,0.3834,0.3858,0.3555,0.3554,0.3554,0,0,0.3393,0.3405,0.3419,0.3447,0.3484,0.3495,0.3511,0.3532,0.3548,0.359,0.3584,0.3635,0.3668,0.3694,0.3711,0.3809,0.3814,0.3823,0.3889,0.3999,0.4023,0.4045,0.4061,0.4083,0.3811,0.3811,0.3811,0,0.3402,0.3422,0.3434,0.347,0.3495,0.3516,0.3552,0.3583,0.3605,0.3642,0.3614,0.3722,0.3724,0.3821,0.3848,0.3841,0.3876,0.3831,0.4018,0.4039,0.406,0.4072,0.4095,0.3817,0.3816,0.3815,0.3815,0,0.3438,0.3461,0.3485,0.3527,0.356,0.3602,0.3639,0.3683,0.3706,0.3738,0.3846,0.3859,0.3926,0.3939,0.392,0.4071,0.4038,0.4036,0.3983,0.4094,0.4097,0.412,0.3824,0.3822,0.3821,0.3819,0,0,0.3415,0.3493,0.3493,0.3525,0.3596,0.3618,0.3696,0.3774,0.3841,0.3889,0.3985,0.4058,0.4093,0.4116,0.412,0.4193,0.4341,0.4178,0.4181,0.4196,0.454,0.4354,0.4359,0.439,0.4396,0.44,0.4468,0,0.344,0.3499,0.3537,0.3595,0.3633,0.3693,0.3766,0.3842,0.3911,0.4011,0.4082,0.4182,0.4154,0.4205,0.4287,0.436,0.4414,0.4319,0.4429,0.4431,0.4257,0.4385,0.4035,0.4055,0.449,0.4494,0.4497,0,0.3448,0.3489,0.3551,0.3637,0.3664,0.3717,0.384,0.391,0.4068,0.4132,0.4256,0.4319,0.4462,0.4409,0.4593,0.4545,0.4556,0.4576,0.4579,0.4395,0.429,0.4025,0.408,0.4534,0.4531,0.4528,0.4526,0,0.3403,0.3486,0.3535,0.3565,0.3679,0.3739,0.3814,0.3959,0.4049,0.4232,0.4332,0.4491,0.4595,0.4688,0.4729,0.4701,0.4891,0.4851,0.4672,0.4655,0.437,0.4319,0.4966,0.4966,0.4966,0.4966,0.4965,0,0.3398,0.343,0.3525,0.3554,0.3643,0.3729,0.3852,0.3958,0.4136,0.4256,0.4409,0.4517,0.4687,0.4796,0.4805,0.4811,0.4962,0.4715,0.4692,0.4385,0.4337,0.4766,0.4741,0.4968,0.4967,0.4967,0.4967,0,0.3337,0.3401,0.3469,0.3589,0.3626,0.3699,0.3867,0.396,0.4145,0.4309,0.4386,0.4608,0.475,0.4841,0.4974,0.4891,0.4913,0.485,0.4427,0.4353,0.4572,0.4553,0.4693,0.4688,0.4683,0.468,0.4677,0,0.3313,0.3342,0.3465,0.3507,0.3572,0.3679,0.3759,0.3948,0.4039,0.4325,0.4393,0.461,0.4667,0.4784,0.4732,0.4709,0.4818,0.4317,0.4196,0.4597,0.4561,0.4548,0.4535,0.3839,0.383,0.3822,0.3815,0,0.3281,0.3336,0.3387,0.3438,0.3525,0.3622,0.3743,0.3808,0.4022,0.4142,0.4282,0.436,0.4491,0.4314,0.4297,0.4232,0.4304,0.4149,0.4755,0.3949,0.3795,0.3758,0.3773,0.3744,0.3751,0.3757,0.376,0.3763,0.3252,0.3288,0.3328,0.3383,0.3479,0.3549,0.3504,0.3623,0.3704,0.3812,0.4007,0.3987,0.4035,0.3831,0.3696,0.3603,0.3893,0.3694,0.3719,0.3752,0.3628,0.3474,0.3335,0.3339,0.3343,0.3347,0.335,0,0.3205,0.3257,0.3266,0.3316,0.3307,0.3411,0.3466,0.336,0.3328,0.3496,0.3538,0.3254,0.3127,0.3189,0.2929,0.2881,0.2866,0.2757,0.2717,0.279,0.2855,0.2684,0.2142,0.2137,0.2134,0.213,0,0,0.3197,0.3161,0.3161,0.3113,0.3141,0.3054,0.3022,0.2917,0.2926,0.2845,0.2814,0.3046,0.3114,0.2615,0.2526,0.2289,0.2527,0.2196,0.3174,0.3205,0.3265,0.341,0.3231,0,0,0,0,0]},{"header":{"parameterUnit":"m.s-1","parameterCategory":2,"la1":30.2991,"la2":30.254,"lo1":-89.0895,"lo2":-89.0444,"dy":0.0017,"dx":0.0017,"nx":28,"ny":28,"refTime":"2024-07-04T03:00:00:Z","depth":"2","parameterNumber":3,"parameterNumberName":"V-component_of_CURRENTS"},"data":[0,0,0,0,0,0,0,0,0,0,0,0,0,0,0,0,0,0,0,0,0,0,0,0,0,0,0,0,0,0,0,0,0,0,0,0,0,0,0,0,0,0,0,0,0,0,0,0,0,0,0,0,0,0,0,0,0,0,0.0161,0.0161,0,0.0139,0.0139,0.0139,0.0119,0.0118,0.0118,0.0118,0.0079,0.0078,0.0077,0,0,0,0,0,0,0,0,0,0,0,0,0,0.0146,0.0146,0.0161,0.0161,0.016,0.0139,0.0139,0.0139,0.0119,0.0118,0.0118,0.0118,0.0079,0.0078,0.0077,0,0,0,0,0,0,0,0,0,0,0,0,0,0.0142,0.0147,0.0161,0.0147,0.0146,0.0139,0.0139,0.0138,0.0119,0.0118,0.0118,0.0118,0.0079,0.0078,0.0077,0.0078,0,0,0.0073,0.0073,0,0,0,0,0,0,0,0,0.0142,0.0142,0.015,0.0148,0.0147,0.0131,0.0119,0.0117,0.0119,0.013,0.0118,0.0117,0.0094,0.0092,0.009,0.0076,0.0075,0.0073,0.0072,0.0072,0.0072,0,0,0,0,0,0,0,0.0142,0.0143,0.0153,0.0149,0.0147,0.0129,0.0128,0.0119,0.0115,0.0129,0.0127,0.0124,0.0093,0.0091,0.0089,0.0074,0.0073,0.0072,0.0071,0.0071,0.0071,0.0072,0,0,0,0,0,0,0.0147,0.0144,0.0153,0.0152,0.0143,0.013,0.0129,0.0137,0.0115,0.0111,0.0124,0.0123,0.0093,0.009,0.0087,0.011,0.0072,0.0071,0.007,0.007,0.0071,0.0072,0,0,0,0,0,0,0.0147,0.0148,0.0154,0.0146,0.0145,0.0131,0.0139,0.0136,0.0137,0.0112,0.0108,0.0128,0.0093,0.0089,0.0089,0.0108,0.007,0.0069,0.0069,0.007,0.0071,0.0142,0,0,0,0,0,0,0.0147,0.0149,0.0157,0.0147,0.0146,0.0161,0.014,0.0136,0.0135,0.0133,0.0114,0.0109,0.0092,0.0091,0.0088,0.0105,0.0068,0.0068,0.007,0.0071,0.0139,0.0145,0.0151,0,0,0,0,0,0.0146,0.016,0.0158,0.0158,0.0158,0.0162,0.016,0.0147,0.0136,0.0144,0.0131,0.011,0.0097,0.0091,0.0087,0.0105,0.0068,0.0069,0.0071,0.0136,0.0144,0.0151,0,0,0,0,0,0,0.0155,0.0159,0.0156,0.017,0.017,0.0158,0.0163,0.0153,0.0149,0.0148,0.0121,0.0116,0.0122,0.0103,0.0097,0.0107,0.0078,0.0079,0.0129,0.0136,0.0142,0.0167,0.0067,0,0,0,0,0,0.0162,0.0177,0.0174,0.0186,0.0189,0.0177,0.0176,0.0172,0.0165,0.0162,0.0148,0.0133,0.0125,0.0123,0.0112,0.012,0.0096,0.0127,0.0134,0.0139,0.0156,0.0152,0.0159,0.0077,0.0077,0.0077,0,0,0.0167,0.0173,0.018,0.0189,0.0188,0.0209,0.0177,0.0185,0.0205,0.0159,0.0179,0.0154,0.0131,0.0141,0.0142,0.0129,0.0142,0.0141,0.0146,0.016,0.0154,0.0162,0.0169,0.0078,0.0078,0.0078,0,0,0.0194,0.0194,0.0219,0.0227,0.0234,0.0232,0.0238,0.0234,0.0235,0.0249,0.0219,0.0208,0.0199,0.0187,0.0179,0.0212,0.0173,0.0204,0.0259,0.0255,0.0262,0.0268,0.0217,0.0218,0.021,0.021,0.021,0,0.0202,0.0238,0.0225,0.0255,0.0272,0.0248,0.0285,0.0283,0.028,0.029,0.0267,0.0254,0.0225,0.024,0.0247,0.0227,0.0206,0.0234,0.0264,0.027,0.0275,0.0222,0.0222,0.0214,0.0213,0.0213,0.0212,0,0.0253,0.0282,0.0298,0.0334,0.0347,0.0374,0.0374,0.0386,0.038,0.0375,0.0386,0.0345,0.0344,0.0322,0.0295,0.0316,0.028,0.027,0.0249,0.0287,0.0228,0.0227,0.0219,0.0217,0.0216,0.0215,0,0,0.0282,0.0328,0.0337,0.0376,0.0397,0.042,0.0451,0.048,0.0517,0.0489,0.0531,0.0488,0.0463,0.0452,0.0409,0.0394,0.0385,0.0354,0.0352,0.031,0.0348,0.0303,0.0297,0.0388,0.0389,0.039,0.0281,0,0.0334,0.0411,0.0418,0.0496,0.054,0.0537,0.0578,0.0595,0.0599,0.063,0.0578,0.06,0.0514,0.0525,0.0492,0.0438,0.0392,0.0414,0.0312,0.0309,0.027,0.0298,0.0322,0.0227,0.0279,0.0279,0.0279,0,0.0393,0.0441,0.0526,0.0603,0.0624,0.0667,0.0739,0.0772,0.079,0.0795,0.0786,0.0749,0.0727,0.065,0.0553,0.0577,0.0464,0.0393,0.0387,0.0329,0.0265,0.0203,0.0223,0.0277,0.0277,0.0277,0.0277,0,0.0442,0.0522,0.0599,0.0624,0.0697,0.0746,0.0791,0.0828,0.0891,0.0911,0.0964,0.0898,0.0907,0.0779,0.0617,0.0601,0.0494,0.0454,0.0285,0.0278,0.027,0.0262,0.0358,0.0358,0.0358,0.0359,0.0359,0,0.0508,0.0572,0.0635,0.0683,0.0795,0.0819,0.0941,0.0967,0.1041,0.1145,0.1065,0.1127,0.0948,0.086,0.0675,0.0488,0.0534,0.0302,0.0263,0.029,0.0285,0.0314,0.0311,0.0355,0.0355,0.0356,0.0357,0,0.0559,0.0593,0.0695,0.0788,0.0825,0.0913,0.1058,0.1153,0.1201,0.1338,0.1363,0.1322,0.1219,0.0994,0.0786,0.0587,0.0395,0.0294,0.0312,0.0278,0.0154,0.0155,0.0115,0.0113,0.0111,0.0109,0.0108,0,0.0593,0.0646,0.0771,0.0854,0.0909,0.1038,0.1143,0.1227,0.1344,0.1469,0.1554,0.1487,0.1443,0.1096,0.077,0.0429,0.0372,0.0187,0.0157,0.0171,0.0137,0.0141,0.0144,0.015,0.0149,0.0148,0.0148,0,0.0667,0.0708,0.0796,0.095,0.1078,0.1233,0.1391,0.1503,0.1627,0.1728,0.1834,0.18,0.1497,0.117,0.0698,0.0463,0.0252,0.0161,0.0207,0.0213,0.0197,0.0166,0.017,0.0142,0.0143,0.0143,0.0143,0.0144,0.0726,0.0806,0.0917,0.1073,0.1221,0.142,0.1544,0.1714,0.1885,0.204,0.2009,0.195,0.1591,0.0997,0.0612,0.021,0.0229,0.0048,0.0053,0.0058,0.0088,0.0071,-0.0006,-0.0007,-0.0007,-0.0007,-0.0007,0,0.0806,0.0903,0.104,0.1235,0.1399,0.1471,0.1704,0.1818,0.2008,0.213,0.2176,0.1806,0.1437,0.1028,0.0445,0.0079,0.006,-0.0061,0.0003,0.0011,0.0018,0.0047,-0.006,-0.0061,-0.0062,-0.0063,0,0,0.0857,0.099,0.1062,0.134,0.1489,0.1704,0.1833,0.1982,0.2086,0.2158,0.2125,0.2054,0.1552,0.1112,0.0633,0.0294,0.023,0.0213,0.0292,0.0432,0.0443,0.0114,0.0173,0,0,0,0,0]}],[{"header":{"parameterUnit":"m.s-1","parameterCategory":2,"la1":30.2991,"la2":30.254,"lo1":-89.0895,"lo2":-89.0444,"dy":0.0017,"dx":0.0017,"nx":28,"ny":28,"refTime":"2024-07-04T03:00:00:Z","depth":"4","parameterNumber":2,"parameterNumberName":"U-component_of_CURRENTS"},"data":[0,0,0,0,0,0,0,0,0,0,0,0,0,0,0,0,0,0,0,0,0,0,0,0,0,0,0,0,0,0,0,0,0,0,0,0,0,0,0,0,0,0,0,0,0,0,0,0,0,0,0,0,0,0,0,0,0,0,0.2134,0.2134,0,0.2166,0.2166,0.2166,0.2217,0.2218,0.222,0.2221,0.2282,0.2282,0.2282,0,0,0,0,0,0,0,0,0,0,0,0,0,0.2053,0.2055,0.2134,0.2135,0.2135,0.2166,0.2166,0.2166,0.2217,0.2219,0.222,0.2222,0.2282,0.2282,0.2282,0,0,0,0,0,0,0,0,0,0,0,0,0,0.2083,0.2055,0.2134,0.2168,0.2172,0.2166,0.2166,0.2166,0.2217,0.2219,0.2221,0.2223,0.2281,0.2282,0.2282,0.2244,0,0,0.2284,0.2284,0,0,0,0,0,0,0,0,0.2081,0.2085,0.2162,0.2166,0.217,0.2194,0.2161,0.2196,0.2216,0.2194,0.2221,0.2224,0.2257,0.2259,0.2253,0.2247,0.225,0.2284,0.2284,0.2285,0.2285,0,0,0,0,0,0,0,0.2079,0.2084,0.2142,0.2163,0.2168,0.2161,0.2168,0.2167,0.221,0.2196,0.2201,0.2212,0.2259,0.2253,0.2255,0.2251,0.2284,0.2284,0.2285,0.2285,0.2383,0.2385,0,0,0,0,0,0,0.2086,0.2082,0.2141,0.2143,0.2135,0.2162,0.2168,0.218,0.221,0.2217,0.221,0.2215,0.2251,0.2255,0.2258,0.2351,0.2285,0.2285,0.2285,0.238,0.2383,0.2386,0,0,0,0,0,0,0.2084,0.2091,0.2139,0.2117,0.2124,0.2162,0.2174,0.218,0.2224,0.2221,0.2229,0.2256,0.2253,0.2257,0.2306,0.2348,0.2285,0.2286,0.2378,0.2381,0.2384,0.2449,0,0,0,0,0,0,0.2082,0.209,0.212,0.2118,0.2125,0.2168,0.2173,0.2179,0.2227,0.2234,0.2261,0.2266,0.2255,0.2305,0.2306,0.2348,0.2286,0.2375,0.2379,0.2383,0.2444,0.2454,0.2463,0,0,0,0,0,0.2079,0.21,0.2121,0.213,0.2159,0.2169,0.2173,0.2202,0.2228,0.225,0.2278,0.2268,0.2334,0.2307,0.2308,0.2351,0.2373,0.2378,0.2383,0.244,0.2452,0.2463,0,0,0,0,0,0,0.207,0.2107,0.2131,0.2162,0.2184,0.2181,0.2208,0.2228,0.2264,0.2289,0.2286,0.2292,0.2357,0.2345,0.2316,0.2395,0.2356,0.2361,0.2399,0.241,0.242,0.2433,0.2287,0,0,0,0,0,0.2085,0.2122,0.2143,0.2172,0.2189,0.2209,0.2227,0.225,0.2271,0.2292,0.2314,0.2342,0.2368,0.2384,0.2404,0.2433,0.2445,0.2467,0.2476,0.2484,0.2498,0.2561,0.2578,0.2403,0.2403,0.2402,0,0,0.2088,0.2117,0.2137,0.2176,0.2196,0.2218,0.2225,0.2265,0.2295,0.2291,0.2354,0.2382,0.2387,0.2433,0.246,0.2433,0.254,0.2491,0.2497,0.2507,0.2569,0.2586,0.2601,0.2406,0.2405,0.2405,0,0,0.2091,0.2141,0.2167,0.2196,0.2246,0.2256,0.2281,0.2314,0.2347,0.24,0.2415,0.2473,0.2503,0.2518,0.2525,0.2598,0.2596,0.2613,0.266,0.2722,0.2736,0.275,0.2779,0.2794,0.2608,0.2608,0.2608,0,0.2102,0.213,0.2174,0.2205,0.2232,0.2279,0.2302,0.2335,0.2386,0.242,0.244,0.2531,0.2542,0.259,0.2625,0.2619,0.2648,0.2611,0.2734,0.2747,0.2759,0.2786,0.2802,0.2612,0.2612,0.2611,0.2611,0,0.2109,0.2151,0.2168,0.2227,0.2262,0.2292,0.2342,0.2402,0.2459,0.2491,0.2585,0.2614,0.2669,0.2685,0.2678,0.277,0.276,0.2744,0.2701,0.2781,0.2804,0.2819,0.2617,0.2616,0.2615,0.2614,0,0,0.2081,0.2156,0.217,0.2199,0.228,0.23,0.2376,0.2437,0.2501,0.2577,0.2649,0.2716,0.2763,0.2776,0.2788,0.2839,0.2949,0.284,0.2841,0.2861,0.308,0.2872,0.2868,0.2965,0.2969,0.2971,0.3057,0,0.2074,0.2117,0.2166,0.2219,0.224,0.2325,0.2383,0.2464,0.2545,0.2634,0.2697,0.2781,0.2784,0.2839,0.2893,0.2949,0.2996,0.2926,0.3005,0.3007,0.2807,0.2881,0.2982,0.3068,0.3072,0.3074,0.3076,0,0.2062,0.2093,0.213,0.2215,0.2237,0.2293,0.2415,0.248,0.2615,0.2686,0.2791,0.285,0.2957,0.2947,0.3081,0.3045,0.3077,0.3103,0.3107,0.2902,0.2828,0.2975,0.3104,0.3101,0.3099,0.3097,0.3096,0,0.1995,0.2073,0.2098,0.2127,0.2228,0.2292,0.2373,0.251,0.2581,0.2748,0.2831,0.2945,0.3041,0.3109,0.3183,0.3157,0.3312,0.3269,0.3101,0.3086,0.3218,0.3203,0.3357,0.3357,0.3357,0.3357,0.3357,0,0.1947,0.198,0.2083,0.2097,0.2164,0.2271,0.2377,0.2482,0.2637,0.2729,0.2869,0.2954,0.3101,0.3196,0.3224,0.3212,0.3351,0.3124,0.3102,0.3241,0.3229,0.3228,0.3212,0.336,0.3359,0.3359,0.3358,0,0.1865,0.1925,0.1964,0.208,0.2129,0.2193,0.2374,0.2451,0.2627,0.2759,0.2824,0.3012,0.3137,0.3232,0.3352,0.3255,0.3267,0.3224,0.3375,0.3358,0.2985,0.2972,0.3029,0.3022,0.3017,0.3012,0.3008,0,0.1816,0.1823,0.1937,0.1968,0.2031,0.215,0.2231,0.2425,0.2509,0.2765,0.2806,0.3002,0.3102,0.3103,0.3211,0.3228,0.319,0.3159,0.3056,0.2982,0.2956,0.2951,0.2946,0.3,0.2998,0.2997,0.2995,0,0.1706,0.1763,0.1789,0.1863,0.1947,0.2019,0.2162,0.221,0.2436,0.2626,0.2733,0.2797,0.292,0.2985,0.3028,0.3031,0.3155,0.31,0.311,0.3013,0.2947,0.2926,0.2927,0.2976,0.2979,0.2981,0.2982,0,0.1629,0.1628,0.1674,0.1725,0.1808,0.1843,0.1951,0.2064,0.2173,0.2473,0.2508,0.2714,0.2907,0.2885,0.2924,0.2912,0.2851,0.2734,0.2762,0.2784,0.2659,0.2536,0.2432,0,0,0,0,0,0.1549,0.1521,0.1536,0.1566,0.1641,0.1702,0.1864,0.1985,0.2228,0.2246,0.237,0.2477,0.2549,0.2648,0.2583,0.278,0.284,0.2686,0.2713,0.2871,0.2893,0.2765,0,0,0,0,0,0,0.1486,0.1491,0.1471,0.1402,0.1416,0.149,0.1592,0.1771,0.1794,0.2059,0.2119,0.2309,0.2418,0.2565,0.2532,0.2558,0.2516,0.2817,0.281,0.2859,0.2878,0.2896,0.2773,0,0,0,0,0]},{"header":{"parameterUnit":"m.s-1","parameterCategory":2,"la1":30.2991,"la2":30.254,"lo1":-89.0895,"lo2":-89.0444,"dy":0.0017,"dx":0.0017,"nx":28,"ny":28,"refTime":"2024-07-04T03:00:00:Z","depth":"4","parameterNumber":3,"parameterNumberName":"V-component_of_CURRENTS"},"data":[0,0,0,0,0,0,0,0,0,0,0,0,0,0,0,0,0,0,0,0,0,0,0,0,0,0,0,0,0,0,0,0,0,0,0,0,0,0,0,0,0,0,0,0,0,0,0,0,0,0,0,0,0,0,0,0,0,0,0.0092,0.0092,0,0.008,0.008,0.008,0.0071,0.0071,0.0071,0.0071,0.0048,0.0048,0.0047,0,0,0,0,0,0,0,0,0,0,0,0,0,0.008,0.0081,0.0093,0.0092,0.0092,0.008,0.008,0.008,0.0071,0.0071,0.0071,0.0071,0.0049,0.0048,0.0047,0,0,0,0,0,0,0,0,0,0,0,0,0,0.0079,0.0081,0.0093,0.0086,0.0085,0.008,0.008,0.008,0.0071,0.0071,0.0071,0.0071,0.0049,0.0048,0.0047,0.0047,0,0,0.0045,0.0045,0,0,0,0,0,0,0,0,0.0079,0.008,0.0087,0.0086,0.0085,0.0076,0.0067,0.0068,0.0072,0.0077,0.0071,0.0071,0.0056,0.0055,0.0054,0.0046,0.0045,0.0045,0.0045,0.0044,0.0044,0,0,0,0,0,0,0,0.0079,0.008,0.0088,0.0087,0.0086,0.0073,0.0073,0.0067,0.0069,0.0077,0.0076,0.0074,0.0056,0.0055,0.0054,0.0044,0.0045,0.0044,0.0044,0.0044,0.0042,0.0042,0,0,0,0,0,0,0.0081,0.008,0.0089,0.0088,0.0081,0.0074,0.0074,0.008,0.0069,0.0067,0.0074,0.0073,0.0056,0.0055,0.0053,0.0069,0.0044,0.0044,0.0043,0.0041,0.0042,0.0042,0,0,0,0,0,0,0.0081,0.0083,0.0089,0.0083,0.0082,0.0074,0.0081,0.008,0.0082,0.0066,0.0064,0.0077,0.0056,0.0054,0.0057,0.0068,0.0043,0.0043,0.0041,0.0042,0.0042,0.009,0,0,0,0,0,0,0.0081,0.0083,0.0089,0.0083,0.0083,0.0094,0.0081,0.008,0.008,0.0079,0.0068,0.0066,0.0056,0.0059,0.0057,0.0066,0.0042,0.0041,0.0041,0.0042,0.0088,0.0093,0.0096,0,0,0,0,0,0.0081,0.0091,0.009,0.0091,0.0092,0.0095,0.0094,0.0087,0.008,0.0087,0.0081,0.0067,0.0061,0.0059,0.0056,0.0066,0.004,0.0041,0.0042,0.0087,0.0092,0.0096,0,0,0,0,0,0,0.0086,0.0091,0.0089,0.01,0.01,0.0093,0.0097,0.0091,0.0091,0.0092,0.0075,0.0073,0.0076,0.0065,0.0062,0.0066,0.0047,0.0047,0.0082,0.0086,0.009,0.0102,0.0041,0,0,0,0,0,0.0091,0.0103,0.0101,0.011,0.0112,0.0105,0.0105,0.0104,0.0101,0.0101,0.0093,0.0084,0.0077,0.0078,0.0069,0.0076,0.0046,0.0079,0.0083,0.0086,0.0094,0.0061,0.0062,0.0045,0.0045,0.0045,0,0,0.0095,0.0099,0.0105,0.0112,0.0112,0.0128,0.0105,0.0112,0.0128,0.0098,0.0116,0.0097,0.008,0.0087,0.0088,0.0082,0.0072,0.0087,0.0091,0.0096,0.0062,0.0063,0.0065,0.0046,0.0046,0.0046,0,0,0.0113,0.0114,0.0132,0.0138,0.0144,0.0144,0.0148,0.0147,0.015,0.0163,0.0141,0.0131,0.0128,0.0117,0.011,0.0131,0.009,0.0125,0.0161,0.0129,0.013,0.013,0.0081,0.0077,0.0132,0.0132,0.0132,0,0.0118,0.0145,0.0137,0.0157,0.0172,0.0155,0.0183,0.0182,0.0184,0.0191,0.0177,0.016,0.0143,0.0145,0.0152,0.014,0.0109,0.0146,0.0134,0.0134,0.0134,0.0083,0.0078,0.0134,0.0134,0.0134,0.0134,0,0.0152,0.0176,0.0187,0.0214,0.0225,0.0246,0.0248,0.0258,0.0256,0.0252,0.0251,0.0221,0.0213,0.0199,0.0184,0.0177,0.0149,0.0138,0.0123,0.0138,0.0084,0.0078,0.0138,0.0137,0.0136,0.0136,0,0,0.0169,0.0206,0.0213,0.0246,0.0263,0.0283,0.0306,0.0327,0.035,0.0328,0.0344,0.0316,0.0289,0.028,0.0247,0.0217,0.018,0.0184,0.0181,0.0137,0.0094,0.0093,0.0085,0.0167,0.0166,0.0166,0.0051,0,0.0205,0.0262,0.027,0.0334,0.0368,0.037,0.04,0.0413,0.0411,0.0418,0.037,0.0372,0.0323,0.032,0.028,0.0211,0.0169,0.0212,0.0084,0.008,0.0079,0.008,0.0165,0.0046,0.0045,0.0044,0.0043,0,0.0243,0.0282,0.0348,0.0415,0.0432,0.0468,0.052,0.0545,0.0538,0.0533,0.0506,0.0462,0.0416,0.0371,0.025,0.028,0.0194,0.0128,0.0122,0.0103,0.0069,0.003,0.0031,0.0032,0.0033,0.0034,0.0034,0,0.0275,0.0343,0.0404,0.0425,0.0487,0.0528,0.0566,0.0584,0.0622,0.0606,0.0617,0.0539,0.0512,0.0396,0.0258,0.0256,0.0111,0.0092,0.0,-0.0002,0.0011,0.0012,0.0,0.0001,0.0001,0.0001,0.0002,0,0.0318,0.0371,0.0431,0.0468,0.0561,0.0585,0.0675,0.069,0.0718,0.0765,0.0684,0.0684,0.052,0.0415,0.0276,0.0121,0.0123,0.0005,-0.0026,0.0031,0.0036,0.0005,0.0007,-0.0003,-0.0002,-0.0001,-0.0001,0,0.0348,0.038,0.0463,0.0545,0.058,0.0652,0.0763,0.0821,0.0833,0.0885,0.0885,0.0794,0.0663,0.048,0.0284,0.0162,0.0004,-0.0056,0.0009,-0.0017,-0.01,-0.0094,-0.0167,-0.0168,-0.0169,-0.017,-0.017,0,0.0369,0.041,0.052,0.0587,0.0635,0.0744,0.0822,0.0876,0.0937,0.0955,0.0978,0.0868,0.0784,0.0502,0.0301,0.0025,-0.0014,-0.0112,-0.01,-0.0091,-0.0114,-0.0107,-0.01,-0.0171,-0.0171,-0.0172,-0.0172,0,0.041,0.0445,0.0515,0.0645,0.0747,0.086,0.0971,0.1019,0.1077,0.1089,0.1063,0.0915,0.0758,0.0521,0.0303,0.0105,-0.0055,-0.0121,-0.0121,-0.011,-0.0096,-0.0117,-0.011,-0.0174,-0.0174,-0.0174,-0.0174,0,0.044,0.0496,0.0583,0.0706,0.0822,0.0931,0.0998,0.1073,0.1126,0.114,0.1128,0.0956,0.0858,0.0562,0.0365,0.0168,0.0114,0.0039,0.003,0.003,0.0121,0.017,0.015,0,0,0,0,0,0.0472,0.0536,0.0642,0.0769,0.0879,0.0952,0.1072,0.1126,0.1174,0.1172,0.1156,0.1014,0.0728,0.0601,0.0406,0.0329,0.0062,0.009,-0.0034,-0.0188,-0.0186,-0.0112,0,0,0,0,0,0,0.0494,0.0587,0.0638,0.0783,0.0877,0.1005,0.1081,0.1128,0.113,0.1148,0.1004,0.0952,0.0674,0.0842,0.0398,0.0338,0.0229,-0.0036,-0.004,-0.019,-0.0187,-0.0185,-0.0108,0,0,0,0,0]}]]